• In Uzbekistan
  • List of Countries
  • For 7 days
  • Water Temperature
  • Satellite Maps
  • Weather Map
  • Weather Widgets
  • user-avatar
    Login

    Hourly Weather Etchmiadzin

    Today, 28 March, Tuesday

    Time Temperature Precipitation Wind Pressure Humidity
    00:00 +8°C° 0.3 mm 2 mps 681 mmHg 73%
    01:00 +7°C° 0.2 mm 2 mps 681 mmHg 75%
    02:00 +7°C° 0.2 mm 2 mps 681 mmHg 76%
    03:00 +6°C° 0.2 mm 2 mps 680 mmHg 78%
    04:00 +6°C° 0.3 mm 2 mps 681 mmHg 78%
    05:00 +6°C° 0.3 mm 2 mps 681 mmHg 78%
    06:00 +6°C° 0.3 mm 2 mps 681 mmHg 79%
    07:00 +7°C° 0.7 mm 2 mps 682 mmHg 76%
    08:00 +8°C° 0.7 mm 3 mps 682 mmHg 73%
    09:00 +9°C° 0.7 mm 3 mps 683 mmHg 70%
    10:00 +9°C° 0.7 mm 2 mps 683 mmHg 70%
    11:00 +9°C° 0.7 mm 2 mps 683 mmHg 70%
    12:00 +9°C° 0.7 mm 2 mps 683 mmHg 70%
    13:00 +10°C° 0.3 mm 2 mps 683 mmHg 69%
    14:00 +10°C° 0.3 mm 2 mps 683 mmHg 67%
    15:00 +12°C° 0.3 mm 2 mps 683 mmHg 66%
    16:00 +10°C° 0.1 mm 2 mps 683 mmHg 68%
    17:00 +10°C° 0.1 mm 1 mps 683 mmHg 70%
    18:00 +9°C° 0.1 mm 1 mps 683 mmHg 73%
    19:00 +7°C° 0 mm 1 mps 684 mmHg 74%
    20:00 +6°C° 0 mm 1 mps 684 mmHg 75%
    21:00 +5°C° 0 mm 1 mps 685 mmHg 76%
    22:00 +5°C° 0 mm 1 mps 685 mmHg 76%
    23:00 +4°C° 0 mm 1 mps 685 mmHg 76%

    Tomorrow, 29 March, Wednesday

    Time Temperature Precipitation Wind Pressure Humidity
    00:00 +4°C° 0 mm 1 mps 685 mmHg 76%
    01:00 +4°C° 0 mm 1 mps 685 mmHg 77%
    02:00 +3°C° 0 mm 1 mps 685 mmHg 78%
    03:00 +3°C° 0 mm 1 mps 685 mmHg 79%
    04:00 +3°C° 0 mm 1 mps 685 mmHg 79%
    05:00 +3°C° 0 mm 1 mps 685 mmHg 80%
    06:00 +2°C° 0 mm 1 mps 685 mmHg 81%
    07:00 +5°C° 0 mm 1 mps 686 mmHg 75%
    08:00 +7°C° 0 mm 1 mps 686 mmHg 70%
    09:00 +9°C° 0 mm 1 mps 687 mmHg 64%
    10:00 +11°C° 0 mm 1 mps 686 mmHg 61%
    11:00 +12°C° 0 mm 1 mps 686 mmHg 58%
    12:00 +13°C° 0 mm 1 mps 686 mmHg 55%
    13:00 +14°C° 0 mm 2 mps 686 mmHg 54%
    14:00 +14°C° 0 mm 2 mps 686 mmHg 52%
    15:00 +14°C° 0 mm 2 mps 686 mmHg 51%
    16:00 +13°C° 0 mm 2 mps 686 mmHg 54%
    17:00 +11°C° 0 mm 1 mps 686 mmHg 57%
    18:00 +10°C° 0 mm 1 mps 686 mmHg 61%
    19:00 +9°C° 0 mm 1 mps 687 mmHg 62%
    20:00 +7°C° 0 mm 1 mps 687 mmHg 64%
    21:00 +6°C° 0 mm 1 mps 687 mmHg 66%
    22:00 +6°C° 0 mm 1 mps 687 mmHg 66%
    23:00 +5°C° 0 mm 1 mps 688 mmHg 66%

    Day after tomorrow, 30 March, Thursday

    Time Temperature Precipitation Wind Pressure Humidity
    00:00 +5°C° 0 mm 1 mps 688 mmHg 66%
    01:00 +4°C° 0 mm 1 mps 688 mmHg 67%
    02:00 +4°C° 0 mm 1 mps 687 mmHg 67%
    03:00 +3°C° 0 mm 1 mps 687 mmHg 68%
    04:00 +3°C° 0 mm 1 mps 687 mmHg 68%
    05:00 +3°C° 0 mm 1 mps 687 mmHg 69%
    06:00 +2°C° 0 mm 1 mps 688 mmHg 69%
    07:00 +5°C° 0 mm 1 mps 688 mmHg 63%
    08:00 +8°C° 0 mm 1 mps 688 mmHg 57%
    09:00 +11°C° 0 mm 1 mps 689 mmHg 52%
    10:00 +12°C° 0 mm 1 mps 689 mmHg 49%
    11:00 +13°C° 0 mm 2 mps 688 mmHg 47%
    12:00 +14°C° 0 mm 2 mps 688 mmHg 45%
    13:00 +15°C° 0 mm 2 mps 687 mmHg 45%
    14:00 +15°C° 0 mm 2 mps 687 mmHg 44%
    15:00 +15°C° 0 mm 2 mps 687 mmHg 44%
    16:00 +14°C° 0 mm 2 mps 686 mmHg 47%
    17:00 +12°C° 0 mm 2 mps 686 mmHg 51%
    18:00 +9°C° 0 mm 2 mps 686 mmHg 55%
    19:00 +9°C° 0 mm 1 mps 686 mmHg 56%
    20:00 +8°C° 0 mm 1 mps 686 mmHg 58%
    21:00 +6°C° 0 mm 1 mps 687 mmHg 60%
    22:00 +6°C° 0 mm 1 mps 686 mmHg 61%
    23:00 +6°C° 0 mm 1 mps 686 mmHg 61%

    31 March, Friday

    Time Temperature Precipitation Wind Pressure Humidity
    00:00 +5°C° 0 mm 1 mps 686 mmHg 62%
    01:00 +5°C° 0 mm 1 mps 686 mmHg 62%
    02:00 +5°C° 0 mm 1 mps 686 mmHg 63%
    03:00 +5°C° 0 mm 1 mps 686 mmHg 63%
    04:00 +5°C° 0 mm 1 mps 685 mmHg 64%
    05:00 +5°C° 0 mm 1 mps 685 mmHg 64%
    06:00 +5°C° 0 mm 1 mps 685 mmHg 65%
    07:00 +7°C° 0 mm 1 mps 686 mmHg 60%
    08:00 +10°C° 0 mm 1 mps 686 mmHg 55%
    09:00 +12°C° 0 mm 1 mps 686 mmHg 50%
    10:00 +13°C° 0 mm 1 mps 686 mmHg 49%
    11:00 +14°C° 0 mm 1 mps 686 mmHg 48%
    12:00 +15°C° 0 mm 1 mps 686 mmHg 47%
    13:00 +16°C° 0 mm 1 mps 685 mmHg 47%
    14:00 +16°C° 0 mm 1 mps 685 mmHg 47%
    15:00 +16°C° 0 mm 1 mps 684 mmHg 47%
    16:00 +15°C° 0.1 mm 1 mps 684 mmHg 51%
    17:00 +13°C° 0.1 mm 1 mps 684 mmHg 56%
    18:00 +12°C° 0.1 mm 1 mps 684 mmHg 60%
    19:00 +11°C° 0.2 mm 1 mps 684 mmHg 63%
    20:00 +11°C° 0.2 mm 1 mps 685 mmHg 66%
    21:00 +10°C° 0.2 mm 1 mps 685 mmHg 68%
    22:00 +10°C° 0.4 mm 1 mps 685 mmHg 71%
    23:00 +10°C° 0.4 mm 1 mps 685 mmHg 74%

    1 April, Saturday

    Time Temperature Precipitation Wind Pressure Humidity
    00:00 +9°C° 0.4 mm 1 mps 685 mmHg 77%
    01:00 +9°C° 0.6 mm 1 mps 685 mmHg 79%
    02:00 +9°C° 0.6 mm 1 mps 685 mmHg 80%
    03:00 +9°C° 0.6 mm 1 mps 685 mmHg 81%
    04:00 +8°C° 0.3 mm 1 mps 685 mmHg 82%
    05:00 +8°C° 0.3 mm 1 mps 685 mmHg 83%
    06:00 +7°C° 0.3 mm 1 mps 685 mmHg 85%
    07:00 +9°C° 0.1 mm 1 mps 685 mmHg 79%
    08:00 +10°C° 0.1 mm 1 mps 685 mmHg 74%
    09:00 +11°C° 0.1 mm 1 mps 685 mmHg 69%
    10:00 +12°C° 0.2 mm 1 mps 685 mmHg 67%
    11:00 +13°C° 0.2 mm 1 mps 685 mmHg 66%
    12:00 +13°C° 0.2 mm 1 mps 685 mmHg 64%
    13:00 +13°C° 0.3 mm 1 mps 684 mmHg 65%
    14:00 +13°C° 0.3 mm 1 mps 684 mmHg 66%
    15:00 +13°C° 0.3 mm 1 mps 683 mmHg 67%
    16:00 +12°C° 0.2 mm 1 mps 683 mmHg 70%
    17:00 +12°C° 0.2 mm 1 mps 683 mmHg 73%
    18:00 +11°C° 0.2 mm 1 mps 683 mmHg 75%
    19:00 +10°C° 0.2 mm 1 mps 684 mmHg 77%
    20:00 +10°C° 0.2 mm 1 mps 684 mmHg 79%
    21:00 +8°C° 0.2 mm 2 mps 684 mmHg 80%
    22:00 +8°C° 0.1 mm 2 mps 684 mmHg 81%
    23:00 +8°C° 0.1 mm 2 mps 684 mmHg 81%

    2 April, Sunday

    Time Temperature Precipitation Wind Pressure Humidity
    00:00 +7°C° 0.1 mm 2 mps 684 mmHg 82%
    01:00 +7°C° 0.1 mm 2 mps 684 mmHg 82%
    02:00 +7°C° 0.1 mm 2 mps 684 mmHg 82%
    03:00 +6°C° 0.1 mm 2 mps 684 mmHg 82%
    04:00 +6°C° 0 mm 2 mps 684 mmHg 82%
    05:00 +6°C° 0 mm 2 mps 684 mmHg 81%
    06:00 +6°C° 0 mm 2 mps 684 mmHg 81%
    07:00 +7°C° 0.1 mm 2 mps 685 mmHg 75%
    08:00 +8°C° 0.1 mm 3 mps 685 mmHg 70%
    09:00 +9°C° 0.1 mm 3 mps 686 mmHg 64%
    10:00 +10°C° 0.1 mm 3 mps 686 mmHg 62%
    11:00 +11°C° 0.1 mm 3 mps 686 mmHg 59%
    12:00 +12°C° 0.1 mm 3 mps 686 mmHg 56%
    13:00 +12°C° 0.1 mm 3 mps 686 mmHg 57%
    14:00 +12°C° 0.1 mm 3 mps 686 mmHg 57%
    15:00 +11°C° 0.1 mm 3 mps 687 mmHg 57%
    16:00 +10°C° 0 mm 3 mps 687 mmHg 60%
    17:00 +9°C° 0 mm 2 mps 687 mmHg 63%
    18:00 +8°C° 0 mm 2 mps 688 mmHg 65%
    19:00 +7°C° 0 mm 2 mps 688 mmHg 69%
    20:00 +6°C° 0 mm 2 mps 689 mmHg 72%
    21:00 +5°C° 0 mm 2 mps 690 mmHg 75%
    22:00 +6°C° 0 mm 1 mps 690 mmHg 76%
    23:00 +5°C° 0 mm 1 mps 690 mmHg 77%
    Show more